Вернуться в каталог

COSMOS 2251 DEB

АктивенLEO
NORAD 36632·DEBRIS·🇷🇺 Russia

Запущен Jun 16, 1993 с Plesetsk Cosmodrome

Loading…

Ближайшие Пролёты (ближайшие 24 часа)

TLE

УстаревающийSource: Space-Track

Эпоха: Sep 9, 2026, 10:40 UTC

1 36632U 93036BEW 26252.44451806  .00001149  00000-0  33980-3 0  9991
2 36632  74.0027 147.9933 0034271 195.0338 164.9804 14.44269142691223

Отслеживайте COSMOS 2251 DEB в реальном времени с AllMySat

Download on the App Store